Location: Laas
(43.4693°N, 0.3073°E)
Time: 15:50:47
(UTC+00:00)

Cosmos 2219 - Pass Details

Date: 25 October 2020
Orbit: 832 x 862 km, 71.1° (Epoch: 24 November)

Event Time Altitude Azimuth Distance (km) Brightness Sun altitude
Rises 18:58:23 0° 332° (NNW) 3,445 6.8 -22.2°
Reaches altitude 10° 19:00:52 10° 329° (NNW) 2,506 6.1 -22.7°
Maximum altitude 19:06:33 64° 250° (WSW) 954 3.6 -23.7°
Enters shadow 19:11:49 12° 171° (S) 2,345 5.3 -24.6°
